Weather History for Rome, OR

Change the Weather History Date:

Monday, February 24, 2014

  Actual Average Record
Temperature  
Mean Temperature 49 °F 36 °F  
Max Temperature 63 °F 48 °F 68 °F (1986)
Min Temperature 35 °F 23 °F 14 °F (1952)
Degree Days  
Heating Degree Days 16 29  
Month to date heating degree days 647 768  
Since 1 July heating degree days 4337 4617  
Cooling Degree Days 0 0  
Month to date cooling degree days 0 0  
Year to date cooling degree days 0 0  
Moisture  
Dew Point 31 °F    
Average Humidity 53    
Maximum Humidity 76    
Minimum Humidity 30    
Precipitation  
Precipitation 0.00 in 0.03 in 0.26 in (1941)
Month to date precipitation 0.60 0.65  
Year to date precipitation 0.73 1.30  
Sea Level Pressure  
Sea Level Pressure 30.01 in    
Wind  
Wind Speed 7 mph (East)    
Max Wind Speed 15 mph    
Max Gust Speed 20 mph    
T = Trace of Precipitation, MM = Missing Value Source: NWS Daily Summary

Daily Weather History Graph

Daily Weather History Graph

Search for Another Location

Airport:

Trip Planner

Search our weather history database for the weather conditions in past years. The results will help you decide how hot, cold, wet, or windy it might be!

Date:

Astronomy

Feb. 24, 2014 Rise Set
Actual Time 6:34 AM PST 5:35 PM PST
Civil Twilight 6:06 AM PST 6:03 PM PST
Nautical Twilight 5:33 AM PST 6:36 PM PST
Astronomical Twilight 5:01 AM PST 7:08 PM PST
Moon 2:42 AM PST (2/24) 12:37 PM PST (2/24)
Length of Visible Light 11h 57m
Length of Day
11h 00m
Waning Crescent, 27% of the Moon is Illuminated
Feb 24
Waning Crescent
Mar 1
New
Mar 8
First Quarter
Mar 16
Full
Mar 23
Last Quarter

Hourly Weather History & Observations

Time (PST) Temp. Windchill Dew Point Humidity Pressure Visibility Wind Dir Wind Speed Gust Speed Precip Events Conditions
12:52 AM 45.0 °F 40.6 °F 28.0 °F 52% 29.98 in - ESE 8.1 mph - N/A   Unknown
1:52 AM 44.1 °F 40.8 °F 28.9 °F 55% 29.99 in - SE 5.8 mph - N/A   Unknown
2:52 AM 45.0 °F 41.2 °F 28.9 °F 53% 29.99 in - SE 6.9 mph - N/A   Unknown
3:52 AM 46.9 °F - 28.0 °F 48% 30.00 in - North 3.5 mph - N/A   Unknown
4:52 AM 45.0 °F 41.8 °F 30.0 °F 56% 30.01 in - NE 5.8 mph - N/A   Unknown
5:52 AM 44.1 °F 38.6 °F 32.0 °F 63% 30.04 in - NE 10.4 mph - N/A   Unknown
6:52 AM 45.0 °F 41.2 °F 34.0 °F 65% 30.06 in - NE 6.9 mph - N/A   Unknown
7:52 AM 46.9 °F - 35.1 °F 63% 30.07 in - ENE 6.9 mph - N/A   Unknown
8:52 AM 50.0 °F - 36.0 °F 59% 30.06 in - East 6.9 mph - N/A   Unknown
9:52 AM 51.1 °F - 35.1 °F 54% 30.06 in - ENE 6.9 mph - N/A   Unknown
10:52 AM 55.0 °F - 34.0 °F 45% 30.05 in - NE 9.2 mph - N/A   Unknown
11:52 AM 57.9 °F - 34.0 °F 41% 30.03 in - Variable 6.9 mph - N/A   Unknown
12:52 PM 57.0 °F - 33.1 °F 40% 30.01 in - Calm Calm - N/A   Unknown
1:52 PM 61.0 °F - 33.1 °F 35% 29.98 in - Variable 3.5 mph - N/A   Unknown
2:52 PM 62.1 °F - 30.9 °F 31% 29.96 in - SW 10.4 mph 19.6 mph N/A   Unknown
3:52 PM 62.1 °F - 30.9 °F 31% 29.94 in - WSW 6.9 mph - N/A   Unknown
4:52 PM 60.1 °F - 30.9 °F 33% 29.95 in - West 6.9 mph - N/A   Unknown
5:52 PM 54.0 °F - 32.0 °F 43% 29.97 in - NE 5.8 mph - N/A   Unknown
6:52 PM 46.9 °F - 30.9 °F 54% 29.99 in - NNE 5.8 mph - N/A   Unknown
7:52 PM 41.0 °F 38.0 °F 30.0 °F 65% 30.01 in - SSE 4.6 mph - N/A   Unknown
8:52 PM 39.9 °F 33.9 °F 30.0 °F 68% 30.02 in - SE 9.2 mph - N/A   Unknown
9:52 PM 39.0 °F 34.0 °F 30.0 °F 70% 30.03 in - SSE 6.9 mph - N/A   Unknown
10:52 PM 37.0 °F 32.4 °F 30.0 °F 76% 30.03 in - South 5.8 mph - N/A   Unknown
11:52 PM 37.0 °F 30.4 °F 28.9 °F 73% 30.02 in - SE 9.2 mph - N/A   Unknown